Location: Kermapucano
(48.0667°N, 3.3000°W)
Time: 20:22:14
(UTC+00:00)

CZ-4B R/B - Pass Details

Date: 29 November 2020
Orbit: 809 x 881 km, 99.1° (Epoch: 27 January)

Event Time Altitude Azimuth Distance (km) Brightness Sun altitude
Rises 06:40:38 0° 16° (NNE) 3,354 6.3 -9.7°
Reaches altitude 10° 06:42:58 10° 18° (NNE) 2,424 5.6 -9.3°
Maximum altitude 06:48:21 78° 104° (ESE) 851 3.4 -8.5°
Drops below altitude 10° 06:53:46 10° 192° (SSW) 2,448 5.8 -7.7°
Sets 06:56:09 0° 193° (SSW) 3,389 6.5 -7.3°
